Retour au catalogue

SHIYAN 5

SY-5

ActifScienceSSO
NORAD 39455·PAYLOAD·🇨🇳 China

Lancé Nov 25, 2013 depuis Jiuquan Satellite Launch Center

Loading…

Prochains Passages (prochaines 24 heures)

TLE

FraisSource: Space-Track

Époque: Sep 14, 2026, 14:51 UTC

1 39455U 13068A   26257.61922104  .00000200  00000-0  70665-4 0  9991
2 39455  98.0567 124.0988 0015081  35.4868 324.7324 14.43714119674539

Suivez SHIYAN 5 en temps réel avec AllMySat

Download on the App Store